Find Starlink 1770

NORAD ID: 46383 Int'l Des: 2020-062 Owner: SPXS Country: US Constellation: starlink operational
LEOCIRCULAR

实时位置

正在加载3D地球...

关于 Starlink 1770

正在加载描述...

即将过境

Passes for default location (London). Set your location on the main map for personalized predictions.

高度历史

Loading altitude history...

两行轨道根数

1 46383U 20062BL 26103.81715938 .00035983 00000-0 30562-3 0 9995
2 46383 53.0393 142.8253 0006970 25.9271 334.2093 15.69277242310678
Epoch: Apr 13, 2026 • Age: 14 hours

当前状态

高度 358.2 km
速度 7.70 km/s
星下点 -3.13°S, 154.82°E
发射日期 Sep 3, 2020
运行时间 5.6 years
类型 internet

技术详情

分类 Payload
质量 260.00 kg
干质量 248.00 kg
总质量 260.00 kg
长度 0.20 m
直径 2.80 m
跨度 9.00 m
形状 Box + pan
制造商 SPXS
平台类型 Starlink
阶段状态 In Orbit
所有者/国家 SPXS/US

Most Searched